Weather History for KMVY - December, 2012

Change the Weather History Date:

Friday, December 7, 2012

  Actual Average (KFMH) Record (KFMH)
Temperature  
Mean Temperature 33 °F -  
Max Temperature 50 °F 43 °F - (-1)
Min Temperature 16 °F 28 °F - (-1)
Degree Days  
Heating Degree Days 32    
Moisture  
Dew Point 37 °F    
Average Humidity 89    
Maximum Humidity 100    
Minimum Humidity 71    
Precipitation  
Precipitation 0.01 in - - ()
Sea Level Pressure  
Sea Level Pressure 30.17 in    
Wind  
Wind Speed 2 mph (South)    
Max Wind Speed 14 mph    
Max Gust Speed 21 mph    
Visibility 10 miles    
Events Rain    
Averages and records for this station are not official NWS values.
T = Trace of Precipitation, MM = Missing Value Source: NWS Daily Summary

Daily Weather History Graph

Daily Weather History Graph

Search for Another Location

Airport or City:

Trip Planner

Search our weather history database for the weather conditions in past years. The results will help you decide how hot, cold, wet, or windy it might be!

Date:

Astronomy

Dec. 07, 2012 Rise Set
Actual Time 6:55 AM EST 4:12 PM EST
Civil Twilight 6:24 AM EST 4:43 PM EST
Nautical Twilight 5:49 AM EST 5:18 PM EST
Astronomical Twilight 5:16 AM EST 5:52 PM EST
Moon 12:07 AM EST (12/7) 12:11 PM EST (12/7)
Length of Visible Light 10h 19m
Length of Day
9h 17m
Last Quarter, 39% of the Moon is Illuminated
Dec 7
Last Quarter
Dec 13
New
Dec 20
First Quarter
Dec 28
Full
Jan 4
Last Quarter

Hourly Weather History & Observations

Time (EST) Temp. Windchill Dew Point Humidity Pressure Visibility Wind Dir Wind Speed Gust Speed Precip Events Conditions
12:53 AM 16.0 °F - 14.0 °F 92% 30.30 in 10.0 mi Calm Calm - N/A   Clear
1:53 AM 17.1 °F - 14.0 °F 88% 30.31 in 10.0 mi Calm Calm - N/A   Scattered Clouds
2:07 AM 19.4 °F - 17.6 °F 93% 30.30 in 10.0 mi Calm Calm - N/A   Mostly Cloudy
2:53 AM 24.1 °F - 21.0 °F 88% 30.29 in 10.0 mi Calm Calm - N/A   Overcast
3:53 AM 28.9 °F - 27.0 °F 92% 30.27 in 10.0 mi Calm Calm - N/A   Overcast
4:53 AM 32.0 °F - 28.9 °F 88% 30.25 in 10.0 mi Calm Calm - N/A   Overcast
5:53 AM 32.0 °F - 30.0 °F 92% 30.26 in 10.0 mi Calm Calm - N/A   Overcast
6:53 AM 34.0 °F - 32.0 °F 92% 30.25 in 10.0 mi Calm Calm - N/A   Overcast
7:39 AM 35.6 °F - 33.8 °F 93% 30.24 in 10.0 mi Calm Calm - N/A   Overcast
7:53 AM 37.0 °F - 35.1 °F 93% 30.24 in 10.0 mi Calm Calm - N/A   Overcast
8:53 AM 45.0 °F 42.6 °F 37.9 °F 76% 30.24 in 10.0 mi South 4.6 mph - N/A   Overcast
9:53 AM 46.0 °F 41.0 °F 37.9 °F 73% 30.24 in 10.0 mi SSE 10.4 mph - N/A   Overcast
10:53 AM 46.9 °F - 39.0 °F 74% 30.21 in 10.0 mi SSE 11.5 mph - N/A   Overcast
11:53 AM 50.0 °F - 41.0 °F 71% 30.18 in 10.0 mi South 13.8 mph 20.7 mph N/A   Clear
12:53 PM 48.0 °F - 41.0 °F 77% 30.15 in 10.0 mi SSE 12.7 mph - N/A   Mostly Cloudy
1:53 PM 48.0 °F - 43.0 °F 83% 30.14 in 10.0 mi South 10.4 mph - N/A   Clear
2:53 PM 48.9 °F - 44.1 °F 83% 30.13 in 10.0 mi South 3.5 mph - N/A   Mostly Cloudy
3:53 PM 48.0 °F - 43.0 °F 83% 30.12 in 10.0 mi Calm Calm - N/A   Overcast
4:53 PM 46.0 °F - 41.0 °F 83% 30.11 in 10.0 mi Calm Calm - 0.00 in Rain Light Rain
5:53 PM 45.0 °F - 43.0 °F 93% 30.10 in 10.0 mi Calm Calm - 0.00 in Rain Light Rain
6:53 PM 45.0 °F - 43.0 °F 93% 30.09 in 10.0 mi Calm Calm - 0.00 in   Overcast
7:53 PM 45.0 °F - 43.0 °F 93% 30.09 in 10.0 mi Calm Calm - N/A   Overcast
8:01 PM 44.6 °F - 42.8 °F 93% 30.09 in 10.0 mi Calm Calm - N/A   Overcast
8:08 PM 44.6 °F - 44.6 °F 100% 30.09 in 10.0 mi Calm Calm - N/A   Overcast
8:53 PM 45.0 °F - 43.0 °F 93% 30.09 in 8.0 mi Calm Calm - 0.00 in Rain Light Rain
9:40 PM 44.6 °F - 42.8 °F 93% 30.08 in 10.0 mi Calm Calm - 0.00 in   Overcast
9:53 PM 45.0 °F - 43.0 °F 93% 30.08 in 10.0 mi Calm Calm - 0.00 in   Overcast
10:53 PM 45.0 °F 43.5 °F 44.1 °F 97% 30.07 in 9.0 mi SSW 3.5 mph - 0.00 in Rain Light Rain
11:11 PM 46.4 °F - 44.6 °F 93% 30.07 in 10.0 mi Calm Calm - 0.01 in   Overcast
11:38 PM 46.4 °F - 44.6 °F 93% 30.06 in 9.0 mi Calm Calm - 0.01 in Rain Light Rain
11:53 PM 46.0 °F - 45.0 °F 96% 30.06 in 8.0 mi Calm Calm - 0.01 in Rain Light Rain